User: anonymous
Location: Oshawa
(43.9000°N, 78.8670°W)
Time: 00:24:21
(UTC-04:00)
Language:

Thor Agena Rocket - Orbit

View from above orbital plane
View from above orbital plane
View from above satellite
View from above satellite

Ground track
Ground track

The orbit data is extracted from the following two-line orbital elements,

1 00733U 64002A   14266.81164351  .00000210  00000-0  95453-4 0  3417
2 00733 099.0175 030.0460 0034141 195.7719 318.4088 14.31900939639550
Epoch (UTC): 23 September 2014 19:28:45
Eccentricity: 0.0034141
inclination: 99.0175°
perigee height: 761 km
apogee height: 810 km
right ascension of ascending node: 30.0460°
argument of perigee: 195.7719°
revolutions per day: 14.31900939
mean anomaly at epoch: 318.4088°
orbit number at epoch: 63955

The dashed part of the orbit path shows where the satellite is in the earth's shadow,  

DLR